Time,TemperatureF,DewpointF,PressureIn,WindDirection,WindDirectionDegrees,WindSpeedMPH,WindSpeedGustMPH,Humidity,HourlyPrecipIn,Conditions,Clouds,dailyrainin,SoftwareType,DateUTC
2013-01-06 16:00:00,42.0,26.0,30.00,WSW,243,7.0,15.0,54,-99.99,,,-99.99,,2013-01-06 21:00:00,
2013-01-06 16:22:00,42.0,26.0,30.00,WSW,243,7.0,15.0,54,-99.99,,,-99.99,,2013-01-06 21:22:00,
2013-01-06 16:33:00,42.0,26.0,30.00,WSW,243,7.0,15.0,54,-99.99,,,-99.99,,2013-01-06 21:33:00,
2013-01-06 16:43:00,42.0,26.0,30.00,WSW,243,7.0,15.0,54,-99.99,,,-99.99,,2013-01-06 21:43:00,
2013-01-06 16:53:00,42.0,26.0,30.00,WSW,243,7.0,15.0,54,-99.99,,,-99.99,,2013-01-06 21:53:00,
2013-01-06 17:00:00,40.0,26.0,30.00,SSW,205,3.0,10.0,58,-99.99,,,-99.99,,2013-01-06 22:00:00,
2013-01-06 17:22:00,40.0,26.0,30.00,SSW,205,3.0,10.0,58,-99.99,,,-99.99,,2013-01-06 22:22:00,
2013-01-06 17:33:00,40.0,26.0,30.00,SSW,205,3.0,10.0,58,-99.99,,,-99.99,,2013-01-06 22:33:00,
2013-01-06 17:43:00,40.0,26.0,30.00,SSW,205,3.0,10.0,58,-99.99,,,-99.99,,2013-01-06 22:43:00,
2013-01-06 17:53:00,40.0,26.0,30.00,SSW,205,3.0,10.0,58,-99.99,,,-99.99,,2013-01-06 22:53:00,
2013-01-06 18:00:00,38.0,26.0,30.03,WSW,255,3.0,10.0,60,-99.99,,,-99.99,,2013-01-06 23:00:00,
2013-01-06 18:22:00,38.0,26.0,30.03,WSW,255,3.0,10.0,60,-99.99,,,-99.99,,2013-01-06 23:22:00,
2013-01-06 18:33:00,38.0,26.0,30.03,WSW,255,3.0,10.0,60,-99.99,,,-99.99,,2013-01-06 23:33:00,
2013-01-06 18:43:00,38.0,26.0,30.03,WSW,255,3.0,10.0,60,-99.99,,,-99.99,,2013-01-06 23:43:00,
2013-01-06 18:53:00,38.0,26.0,30.03,WSW,255,3.0,10.0,60,-99.99,,,-99.99,,2013-01-06 23:53:00,
2013-01-06 19:00:00,35.0,27.0,30.03,SSE,148,1.0,5.0,71,-99.99,,,-99.99,,2013-01-07 00:00:00,
2013-01-06 19:23:00,35.0,27.0,30.03,SSE,148,1.0,5.0,71,-99.99,,,-99.99,,2013-01-07 00:23:00,
2013-01-06 19:33:00,35.0,27.0,30.03,SSE,148,1.0,5.0,71,-99.99,,,-99.99,,2013-01-07 00:33:00,
2013-01-06 19:43:00,35.0,27.0,30.03,SSE,148,1.0,5.0,71,-99.99,,,-99.99,,2013-01-07 00:43:00,
2013-01-06 19:53:00,35.0,27.0,30.03,SSE,148,1.0,5.0,71,-99.99,,,-99.99,,2013-01-07 00:53:00,
2013-01-06 20:00:00,38.0,26.0,30.03,SSW,209,2.0,6.0,63,-99.99,,,-99.99,,2013-01-07 01:00:00,
2013-01-06 20:23:00,38.0,26.0,30.03,SSW,209,2.0,6.0,63,-99.99,,,-99.99,,2013-01-07 01:23:00,
2013-01-06 20:32:00,38.0,26.0,30.03,SSW,209,2.0,6.0,63,-99.99,,,-99.99,,2013-01-07 01:32:00,
2013-01-06 20:43:00,38.0,26.0,30.03,SSW,209,2.0,6.0,63,-99.99,,,-99.99,,2013-01-07 01:43:00,
2013-01-06 20:53:00,38.0,26.0,30.03,SSW,209,2.0,6.0,63,-99.99,,,-99.99,,2013-01-07 01:53:00,
2013-01-06 21:00:00,34.0,27.0,30.03,NE,55,0.0,5.0,77,-99.99,,,-99.99,,2013-01-07 02:00:00,
2013-01-06 21:23:00,34.0,27.0,30.03,NE,55,0.0,5.0,77,-99.99,,,-99.99,,2013-01-07 02:23:00,
2013-01-06 21:32:00,34.0,27.0,30.03,NE,55,0.0,5.0,77,-99.99,,,-99.99,,2013-01-07 02:32:00,
2013-01-06 21:43:00,34.0,27.0,30.03,NE,55,0.0,5.0,77,-99.99,,,-99.99,,2013-01-07 02:43:00,
2013-01-06 21:53:00,34.0,27.0,30.03,NE,55,0.0,5.0,77,-99.99,,,-99.99,,2013-01-07 02:53:00,
2013-01-06 22:00:00,32.0,27.0,30.06,SW,226,0.0,2.0,82,-99.99,,,-99.99,,2013-01-07 03:00:00,
2013-01-06 22:23:00,32.0,27.0,30.06,SW,226,0.0,2.0,82,-99.99,,,-99.99,,2013-01-07 03:23:00,
2013-01-06 22:33:00,32.0,27.0,30.06,SW,226,0.0,2.0,82,-99.99,,,-99.99,,2013-01-07 03:33:00,
2013-01-06 22:43:00,32.0,27.0,30.06,SW,226,0.0,2.0,82,-99.99,,,-99.99,,2013-01-07 03:43:00,
2013-01-06 22:53:00,32.0,27.0,30.06,SW,226,0.0,2.0,82,-99.99,,,-99.99,,2013-01-07 03:53:00,